User: anonymous   Login
Location: Sungai Liu
(2.3667°N, 113.8667°E)
Time: 08:16:01
(UTC+00:00)
Language:

Cosmos 2366 rocket - Orbit

View from above orbital plane
View from above orbital plane
View from above satellite
View from above satellite

Ground track
Ground track

The orbit data is extracted from the following two-line orbital elements,

1 25893U 99045B   22222.63205934 -.00000003  00000-0 -18725-4 0  9998
2 25893  82.9233  64.7012 0027513 235.1536 157.5041 13.76587931153360
Epoch (UTC): 10 August 2022 15:10:09
Eccentricity: 0.0027513
inclination: 82.9233°
perigee height: 956 km
apogee height: 996 km
right ascension of ascending node: 64.7012°
argument of perigee: 235.1536°
revolutions per day: 13.76587931
mean anomaly at epoch: 157.5041°
orbit number at epoch: 15336

The dashed part of the orbit path shows where the satellite is in the earth's shadow,  

DLR